[[{"header":{"parameterUnit":"m.s-1","parameterCategory":1,"la1":30.2991,"la2":30.254,"lo1":-89.0895,"lo2":-89.0444,"dy":0.0017,"dx":0.0017,"nx":28,"ny":28,"refTime":"2024-08-09T09:00:00:Z","depth":0,"parameterNumber":2,"parameterNumberName":"U-component_of_WINDS"},"data":[0,0,0,0,0,0,0,0,0,0,0,0,0,0,0,0,0,0,0,0,0,0,0,0,0,0,0,0,0,0,0,0,0,0,0,0,0,0,0,0,0,0,0,0,0,0,0,0,0,0,0,0,0,0,0,0,0,0,1.1498,1.1498,0,1.1494,1.1494,1.1494,1.1518,1.1519,1.152,1.1521,1.1514,1.1513,1.1512,0,0,0,0,0,0,0,0,0,0,0,0,0,1.1524,1.1523,1.1498,1.1498,1.1498,1.1494,1.1494,1.1494,1.1518,1.1519,1.152,1.1521,1.1514,1.1513,1.1512,0,0,0,0,0,0,0,0,0,0,0,0,0,1.1516,1.1523,1.1498,1.151,1.1511,1.1494,1.1494,1.1494,1.1518,1.1519,1.152,1.1521,1.1514,1.1513,1.1512,1.1483,0,0,1.1508,1.1507,0,0,0,0,0,0,0,0,1.1516,1.1515,1.1508,1.1509,1.151,1.1508,1.1501,1.149,1.1518,1.1515,1.1521,1.1522,1.1511,1.151,1.1507,1.1483,1.1482,1.1508,1.1507,1.1506,1.1506,0,0,0,0,0,0,0,1.1517,1.1515,1.1497,1.1508,1.1509,1.1514,1.1514,1.1499,1.1507,1.1516,1.1517,1.1517,1.1511,1.1508,1.1507,1.1482,1.1508,1.1507,1.1506,1.1505,1.1434,1.1433,0,0,0,0,0,0,1.1516,1.1515,1.1497,1.1496,1.1516,1.1513,1.1513,1.1508,1.1507,1.1508,1.1516,1.1518,1.1509,1.1508,1.1506,1.1472,1.1506,1.1505,1.1505,1.1435,1.1434,1.1432,0,0,0,0,0,0,1.1517,1.1514,1.1497,1.1506,1.1505,1.1511,1.1505,1.1507,1.1503,1.1508,1.1509,1.1511,1.151,1.1508,1.1489,1.1472,1.1505,1.1504,1.1436,1.1434,1.1433,1.1403,0,0,0,0,0,0,1.1517,1.1514,1.1504,1.1506,1.1504,1.148,1.1504,1.1506,1.1501,1.1504,1.1503,1.1504,1.1511,1.149,1.1487,1.1471,1.1503,1.1438,1.1435,1.1433,1.1405,1.14,1.1396,0,0,0,0,0,1.1518,1.1495,1.1503,1.1501,1.1491,1.1479,1.1477,1.1487,1.15,1.1489,1.1492,1.1504,1.1475,1.1488,1.1485,1.1468,1.1439,1.1436,1.1434,1.1407,1.1401,1.1396,0,0,0,0,0,0,1.149,1.1496,1.1505,1.1482,1.148,1.1483,1.1469,1.148,1.1473,1.1476,1.1487,1.1486,1.1465,1.1465,1.1479,1.144,1.1459,1.1456,1.144,1.1434,1.143,1.1429,1.1502,0,0,0,0,0,1.1481,1.1471,1.1477,1.1456,1.1455,1.1462,1.1457,1.1465,1.1462,1.1461,1.1462,1.1459,1.1449,1.1442,1.1433,1.1406,1.1406,1.1393,1.1388,1.1385,1.1381,1.1365,1.1359,1.1424,1.1424,1.1424,0,0,1.1462,1.1465,1.1457,1.145,1.145,1.1438,1.1461,1.1448,1.1439,1.1459,1.144,1.1441,1.1438,1.1415,1.1404,1.1414,1.1363,1.1381,1.1378,1.1376,1.1362,1.1356,1.135,1.1422,1.1422,1.1423,0,0,1.1422,1.1424,1.1406,1.1405,1.1404,1.141,1.1405,1.1407,1.1409,1.1391,1.1405,1.1395,1.1377,1.1374,1.1371,1.133,1.134,1.1327,1.1302,1.1287,1.1282,1.1277,1.1261,1.1256,1.1324,1.1324,1.1324,0,1.1399,1.1383,1.1396,1.1382,1.1377,1.1396,1.1378,1.1376,1.1372,1.1368,1.138,1.1358,1.1358,1.1333,1.1323,1.132,1.1315,1.1326,1.1282,1.1277,1.1273,1.1258,1.1252,1.1322,1.1322,1.1323,1.1323,0,1.1354,1.1342,1.1328,1.1325,1.1319,1.1303,1.1312,1.1305,1.1314,1.1318,1.1299,1.1299,1.129,1.1285,1.1293,1.1261,1.1267,1.128,1.1299,1.1265,1.1251,1.1245,1.132,1.132,1.1321,1.1321,0,0,1.1294,1.1298,1.1292,1.1291,1.1291,1.1282,1.1267,1.1259,1.1252,1.1249,1.1235,1.1221,1.1233,1.1229,1.1237,1.1224,1.119,1.1238,1.1238,1.1227,1.1154,1.1142,1.1135,1.1198,1.1197,1.1196,1.1153,0,1.1253,1.1228,1.1239,1.1212,1.1201,1.1219,1.1205,1.1204,1.1207,1.1198,1.1202,1.1191,1.1208,1.1206,1.1194,1.1196,1.1175,1.12,1.1183,1.1183,1.1181,1.1128,1.1116,1.1076,1.1148,1.1147,1.1146,0,1.1202,1.1198,1.1169,1.1172,1.1168,1.1155,1.1149,1.1141,1.1139,1.1142,1.1138,1.1149,1.1133,1.1154,1.1131,1.1148,1.1142,1.1143,1.1141,1.1138,1.1161,1.1122,1.1063,1.1056,1.1138,1.1139,1.1139,0,1.1159,1.1146,1.1127,1.1125,1.1128,1.1119,1.112,1.1119,1.1114,1.1108,1.1105,1.1097,1.1092,1.1086,1.1094,1.1109,1.107,1.1092,1.1071,1.107,1.1059,1.106,1.0997,1.1059,1.1059,1.106,1.106,0,1.1111,1.1093,1.1108,1.1096,1.1076,1.1089,1.1068,1.1071,1.107,1.1059,1.1075,1.1063,1.1075,1.1065,1.1071,1.1051,1.1049,1.105,1.1051,1.1047,1.1047,1.1042,1.1044,1.1058,1.1058,1.1059,1.1059,0,1.1059,1.1068,1.1049,1.1053,1.1054,1.1039,1.1042,1.1031,1.1037,1.1022,1.1019,1.1027,1.1015,1.1023,1.1011,1.1016,1.0988,1.0995,1.0989,1.0989,1.0967,1.0968,1.0897,1.0888,1.0958,1.0958,1.0957,0,1.1026,1.1013,1.1016,1.101,1.101,1.1,1.0995,1.1007,1.1001,1.0999,1.0987,1.0977,1.097,1.095,1.0954,1.0945,1.095,1.0926,1.0949,1.0945,1.0947,1.0947,1.0945,1.092,1.092,1.0919,1.0918,0,1.0968,1.0973,1.0966,1.096,1.0953,1.0949,1.0946,1.094,1.0953,1.0945,1.0933,1.0928,1.0916,1.0905,1.0898,1.0898,1.0909,1.0912,1.0906,1.09,1.0897,1.0896,1.0974,1.0913,1.0913,1.0914,1.0914,1.0914,1.0923,1.0911,1.0912,1.0903,1.0902,1.0899,1.0888,1.0893,1.0884,1.0876,1.0884,1.087,1.0869,1.0861,1.0859,1.0847,1.0857,1.0849,1.0847,1.0844,1.084,1.0901,1.0846,1.0847,1.0847,1.0847,1.0847,0,1.0863,1.0865,1.0857,1.0852,1.0845,1.0859,1.0856,1.0848,1.0836,1.0835,1.0827,1.0814,1.0804,1.0808,1.0798,1.0788,1.0793,1.0785,1.0785,1.0784,1.0833,1.0838,1.0781,1.0781,1.0781,1.0781,1.0781,1.0781,1.0831,1.0812,1.0818,1.0798,1.08,1.0787,1.0784,1.078,1.0779,1.0764,1.0756,1.0759,1.0759,1.075,1.0741,1.0743,1.0737,1.0727,1.073,1.0775,1.0781,1.0787,1.0792,1.0726,1.0726,1.0682,1.0681,1.0681]},{"header":{"parameterUnit":"m.s-1","parameterCategory":1,"la1":30.2991,"la2":30.254,"lo1":-89.0895,"lo2":-89.0444,"dy":0.0017,"dx":0.0017,"nx":28,"ny":28,"refTime":"2024-08-09T09:00:00:Z","depth":0,"parameterNumber":3,"parameterNumberName":"V-component_of_WINDS"},"data":[0,0,0,0,0,0,0,0,0,0,0,0,0,0,0,0,0,0,0,0,0,0,0,0,0,0,0,0,0,0,0,0,0,0,0,0,0,0,0,0,0,0,0,0,0,0,0,0,0,0,0,0,0,0,0,0,0,0,-3.2906,-3.2907,0,-3.299,-3.2991,-3.2992,-3.2943,-3.294,-3.2938,-3.2935,-3.302,-3.3024,-3.3029,0,0,0,0,0,0,0,0,0,0,0,0,0,-3.27,-3.2704,-3.2906,-3.2907,-3.2908,-3.299,-3.2991,-3.2992,-3.2943,-3.294,-3.2937,-3.2934,-3.3018,-3.3024,-3.3029,0,0,0,0,0,0,0,0,0,0,0,0,0,-3.2787,-3.2705,-3.2906,-3.2893,-3.2893,-3.299,-3.2991,-3.2993,-3.2944,-3.294,-3.2936,-3.2933,-3.3017,-3.3023,-3.303,-3.3143,0,0,-3.305,-3.3053,0,0,0,0,0,0,0,0,-3.2782,-3.2795,-3.2894,-3.2894,-3.2894,-3.2952,-3.295,-3.3043,-3.2944,-3.2924,-3.2935,-3.2931,-3.3,-3.3008,-3.3032,-3.3147,-3.3151,-3.3051,-3.3055,-3.3058,-3.306,0,0,0,0,0,0,0,-3.2776,-3.2791,-3.2939,-3.2895,-3.2896,-3.2883,-3.2891,-3.2967,-3.2981,-3.2926,-3.2922,-3.2933,-3.2999,-3.3025,-3.3033,-3.3152,-3.3051,-3.3057,-3.3061,-3.3063,-3.3365,-3.3369,0,0,0,0,0,0,-3.2772,-3.2786,-3.2936,-3.2942,-3.2828,-3.2889,-3.2899,-3.2937,-3.298,-3.2983,-3.2936,-3.2931,-3.3016,-3.3025,-3.3036,-3.3172,-3.3058,-3.3064,-3.3068,-3.3361,-3.3366,-3.337,0,0,0,0,0,0,-3.2767,-3.2785,-3.2933,-3.2863,-3.2881,-3.2897,-3.294,-3.2941,-3.2966,-3.2988,-3.299,-3.296,-3.3013,-3.3027,-3.3117,-3.3174,-3.3067,-3.3073,-3.3357,-3.3363,-3.3368,-3.3445,0,0,0,0,0,0,-3.2762,-3.2784,-3.2828,-3.2865,-3.2885,-3.3014,-3.2944,-3.2945,-3.2979,-3.2972,-3.3011,-3.3014,-3.3011,-3.3107,-3.3124,-3.3181,-3.3078,-3.3351,-3.3359,-3.3366,-3.3437,-3.3453,-3.3466,0,0,0,0,0,-3.2754,-3.2845,-3.283,-3.2849,-3.294,-3.3017,-3.3028,-3.3024,-3.2983,-3.3027,-3.3041,-3.3013,-3.3165,-3.3117,-3.3135,-3.3196,-3.3348,-3.3357,-3.3366,-3.3431,-3.3449,-3.3465,0,0,0,0,0,0,-3.2814,-3.285,-3.2833,-3.2939,-3.2975,-3.3008,-3.3063,-3.3044,-3.3092,-3.3084,-3.3075,-3.3085,-3.3179,-3.3196,-3.3142,-3.3308,-3.325,-3.3263,-3.3293,-3.3311,-3.3325,-3.3319,-3.3084,0,0,0,0,0,-3.2839,-3.2899,-3.2927,-3.3018,-3.3037,-3.3047,-3.3081,-3.3074,-3.3111,-3.3126,-3.3147,-3.3183,-3.3239,-3.3276,-3.3329,-3.3439,-3.3447,-3.349,-3.3504,-3.3516,-3.3527,-3.3587,-3.3607,-3.34,-3.34,-3.34,0,0,-3.2892,-3.2919,-3.2958,-3.303,-3.3058,-3.312,-3.306,-3.3128,-3.3174,-3.3136,-3.3223,-3.324,-3.328,-3.3381,-3.3427,-3.3398,-3.3586,-3.3527,-3.3537,-3.3542,-3.3599,-3.3618,-3.3636,-3.3406,-3.3405,-3.3404,0,0,-3.302,-3.3047,-3.3126,-3.3155,-3.3197,-3.3204,-3.3223,-3.3259,-3.3269,-3.3357,-3.3329,-3.3384,-3.348,-3.351,-3.3538,-3.3679,-3.3655,-3.3697,-3.3771,-3.383,-3.3846,-3.3861,-3.3911,-3.393,-3.3708,-3.3708,-3.3708,0,-3.3081,-3.3174,-3.3168,-3.3239,-3.3272,-3.3241,-3.3321,-3.3349,-3.3406,-3.343,-3.3397,-3.3519,-3.3543,-3.3652,-3.3686,-3.371,-3.3731,-3.3692,-3.3845,-3.3859,-3.3872,-3.392,-3.3939,-3.3713,-3.3712,-3.3712,-3.3711,0,-3.3246,-3.3311,-3.3369,-3.3427,-3.3466,-3.3541,-3.3546,-3.3587,-3.3577,-3.3587,-3.3677,-3.3706,-3.3764,-3.3789,-3.378,-3.3897,-3.3878,-3.3845,-3.3787,-3.3897,-3.3942,-3.396,-3.372,-3.3718,-3.3717,-3.3715,0,0,-3.3413,-3.3468,-3.3489,-3.3515,-3.356,-3.361,-3.3684,-3.3742,-3.3777,-3.3818,-3.3879,-3.3962,-3.3933,-3.3965,-3.3959,-3.401,-3.4121,-3.3971,-3.3972,-3.3998,-3.4251,-3.4276,-3.4297,-3.4105,-3.4109,-3.4112,-3.4248,0,-3.3544,-3.3673,-3.3671,-3.379,-3.3851,-3.3823,-3.3887,-3.3922,-3.3933,-3.3985,-3.3997,-3.4057,-3.4013,-3.4032,-3.4082,-3.4097,-3.4171,-3.4087,-3.4162,-3.4165,-3.4153,-3.432,-3.4346,-3.4473,-3.4265,-3.4268,-3.4271,0,-3.3714,-3.3762,-3.3888,-3.3926,-3.3951,-3.4008,-3.4062,-3.4112,-3.4151,-3.4156,-3.4192,-3.4178,-3.4253,-3.4193,-3.4295,-3.4238,-3.4268,-3.428,-3.4285,-3.4291,-3.4224,-3.4332,-3.4514,-3.4533,-3.4298,-3.4296,-3.4294,0,-3.3824,-3.392,-3.4008,-3.4031,-3.4077,-3.4118,-3.4139,-3.4174,-3.421,-3.4256,-3.4279,-3.4333,-3.4363,-3.4405,-3.4407,-3.4363,-3.451,-3.445,-3.4516,-3.4516,-3.4548,-3.4546,-3.4738,-3.4568,-3.4567,-3.4567,-3.4567,0,-3.3971,-3.4049,-3.4058,-3.4112,-3.4199,-3.4195,-3.4281,-3.4298,-3.433,-3.4386,-3.4366,-3.4419,-3.4417,-3.4472,-3.4473,-3.4558,-3.4571,-3.4577,-3.4576,-3.4579,-3.4578,-3.4599,-3.459,-3.4572,-3.4571,-3.457,-3.4569,0,-3.4108,-3.4117,-3.4211,-3.4247,-3.4258,-3.4321,-3.4351,-3.4402,-3.4412,-3.4484,-3.4501,-3.4516,-3.4579,-3.4585,-3.4657,-3.4658,-3.4761,-3.4751,-3.4748,-3.4747,-3.4812,-3.4806,-3.5024,-3.5052,-3.4864,-3.4866,-3.4867,0,-3.4201,-3.4261,-3.4304,-3.4341,-3.4364,-3.4424,-3.446,-3.4459,-3.4498,-3.4547,-3.4593,-3.4654,-3.4703,-3.4804,-3.4822,-3.4877,-3.4868,-3.4941,-3.4876,-3.4878,-3.487,-3.4866,-3.4872,-3.4953,-3.4955,-3.4957,-3.4958,0,-3.4365,-3.4367,-3.4421,-3.4477,-3.4521,-3.4565,-3.4605,-3.4637,-3.4641,-3.4685,-3.475,-3.4788,-3.4863,-3.4924,-3.4979,-3.5,-3.498,-3.4979,-3.4997,-3.5,-3.4996,-3.5,-3.4783,-3.4974,-3.4972,-3.4971,-3.497,-3.4969,-3.4483,-3.4535,-3.4574,-3.4635,-3.4666,-3.4705,-3.4755,-3.4772,-3.4826,-3.4888,-3.4883,-3.4955,-3.4993,-3.5065,-3.509,-3.5146,-3.5121,-3.5147,-3.5154,-3.5161,-3.5168,-3.4988,-3.5155,-3.5155,-3.5155,-3.5154,-3.5154,0,-3.4647,-3.4671,-3.4727,-3.4785,-3.4833,-3.4811,-3.4856,-3.4897,-3.4961,-3.4998,-3.5047,-3.5122,-3.5181,-3.5203,-3.5261,-3.5302,-3.5294,-3.5317,-3.5314,-3.5319,-3.5186,-3.5165,-3.5322,-3.5322,-3.5322,-3.5322,-3.5322,-3.5322,-3.4738,-3.4825,-3.4831,-3.4934,-3.4957,-3.5028,-3.5055,-3.5091,-3.512,-3.5205,-3.5255,-3.5269,-3.5301,-3.5361,-3.5415,-3.542,-3.5442,-3.5469,-3.547,-3.5345,-3.5328,-3.5312,-3.5292,-3.5474,-3.5474,-3.5598,-3.56,-3.5601]}]]